Location: Newark
(30.1000°N, 109.4667°E)
Time: 14:36:56
(UTC+00:00)

Courier 1B Rocket - Pass Details

Date: 24 February 2020
Orbit: 920 x 1202 km, 28.2° (Epoch: 06 April)

Event Time Altitude Azimuth Distance (km) Brightness Sun altitude
Exits shadow 22:38:05 - 252° (WSW) 3,102 7.1 -8.4°
Reaches altitude 10° 22:39:24 10° 243° (WSW) 2,838 6.9 -8.1°
Maximum altitude 22:43:17 16° 209° (SSW) 2,496 6.9 -7.3°
Drops below altitude 10° 22:47:19 10° 175° (S) 2,954 7.7 -6.4°
Sets 22:51:28 0° 154° (SSE) 3,967 8.7 -5.5°
